Location: N�rnberg
(49.4489°N, 11.0797°E)
Time: 14:59:19
(UTC+02:00)

Envisat - Visible Passes

Search period start: 21 May 2018 00:00
Search period end: 31 May 2018 00:00
Orbit: 764 x 766 km, 98.2° (Epoch: 20 May)

Date Brightness Start Highest point End Pass type
(mag) Time Alt. Az. Time Alt. Az. Time Alt. Az.
22 May 5.6 21:59:57 10° WSW 22:02:53 15° W 22:05:49 10° NW visible
25 May 5.5 21:48:03 10° SW 21:51:35 19° W 21:55:08 10° NW visible
27 May 5.9 22:16:06 10° W 22:17:32 11° W 22:18:58 10° WNW visible
30 May 5.7 22:03:36 10° WSW 22:06:12 14° W 22:08:50 10° NW visible
